Location: Moscow
(55.7500°N, 37.5830°E)
Time: 12:37:53
(UTC+03:00)

S-56A Canister/Altair - Pass Details

Date: 02 December 2021
Orbit: 633 x 2499 km, 38.9° (Epoch: 17 January)

Event Time Altitude Azimuth Distance (km) Brightness Sun altitude
Rises 01:19:36 0° 218° (SW) 4,624 - -54.4°
Reaches altitude 10° 01:24:49 10° 196° (SSW) 3,201 - -54.0°
Maximum altitude 01:28:21 14° 168° (SSE) 2,626 - -53.8°
Drops below altitude 10° 01:31:23 10° 139° (SE) 2,656 - -53.6°
Sets 01:34:57 0° 114° (ESE) 3,328 - -53.4°
